Weather History for Jefferson, NC

Change the Weather History Date:

Saturday, August 24, 2013

  Actual Average Record
Temperature  
Mean Temperature 64 °F -  
Max Temperature 71 °F 77 °F 88 °F (1968)
Min Temperature 58 °F 55 °F 47 °F (1969)
Growing Degree Days 14 (Base 50)    
Moisture  
Dew Point 54 °F    
Average Humidity 72    
Maximum Humidity 94    
Minimum Humidity 43    
Precipitation  
Precipitation 0.00 in - - ()
Sea Level Pressure  
Sea Level Pressure 30.33 in    
Wind  
Wind Speed 3 mph (East)    
Max Wind Speed 9 mph    
Max Gust Speed -    
Visibility 10 miles    
Events      
Averages and records for this station are not official NWS values.
T = Trace of Precipitation, MM = Missing Value Source: NWS Daily Summary

Daily Weather History Graph

Daily Weather History Graph

Search for Another Location

Airport:

Trip Planner

Search our weather history database for the weather conditions in past years. The results will help you decide how hot, cold, wet, or windy it might be!

Date:

Astronomy

Aug. 24, 2013 Rise Set
Actual Time 6:50 AM EDT 8:04 PM EDT
Civil Twilight 6:24 AM EDT 8:31 PM EDT
Nautical Twilight 5:52 AM EDT 9:02 PM EDT
Astronomical Twilight 5:18 AM EDT 9:36 PM EDT
Moon 10:06 PM EDT (8/24) 10:40 AM EDT (8/24)
Length of Visible Light 14h 07m
Length of Day
13h 13m
Waning Gibbous, 84% of the Moon is Illuminated
Aug 24
Waning Gibbous
Aug 28
Last Quarter
Sep 5
New
Sep 12
First Quarter
Sep 19
Full

Hourly Weather History & Observations

Time (EDT) Temp. Dew Point Humidity Pressure Visibility Wind Dir Wind Speed Gust Speed Precip Events Conditions
12:15 AM 63.9 °F 61.3 °F 91% 30.23 in 10.0 mi NE 3.5 mph - N/A   Overcast
12:35 AM 63.5 °F 61.2 °F 92% 30.24 in 7.0 mi ENE 4.6 mph - N/A   Overcast
12:55 AM 63.0 °F 60.8 °F 93% 30.24 in 7.0 mi NE 4.6 mph - N/A   Overcast
1:15 AM 63.0 °F 60.8 °F 93% 30.24 in 7.0 mi NE 3.5 mph - N/A   Overcast
1:35 AM 62.6 °F 60.3 °F 92% 30.24 in 10.0 mi ENE 5.8 mph - N/A   Overcast
1:55 AM 62.4 °F 59.9 °F 91% 30.24 in 10.0 mi ENE 6.9 mph - N/A   Overcast
2:15 AM 61.9 °F 59.5 °F 92% 30.24 in 10.0 mi NE 5.8 mph - N/A   Overcast
2:35 AM 61.7 °F 59.4 °F 92% 30.24 in 10.0 mi ENE 4.6 mph - N/A   Overcast
2:55 AM 61.2 °F 59.0 °F 93% 30.24 in 10.0 mi ENE 4.6 mph - N/A   Overcast
3:15 AM 61.0 °F 58.6 °F 92% 30.25 in 10.0 mi Calm Calm - N/A   Overcast
3:35 AM 60.4 °F 58.3 °F 93% 30.25 in 10.0 mi Calm Calm - N/A   Scattered Clouds
3:55 AM 60.1 °F 58.1 °F 93% 30.26 in 10.0 mi Calm Calm - N/A   Scattered Clouds
4:15 AM 60.3 °F 58.1 °F 93% 30.26 in 10.0 mi Calm Calm - N/A   Mostly Cloudy
4:35 AM 60.1 °F 57.6 °F 91% 30.26 in 10.0 mi Calm Calm - N/A   Overcast
4:55 AM 60.4 °F 57.6 °F 90% 30.26 in 10.0 mi Calm Calm - N/A   Mostly Cloudy
5:15 AM 59.2 °F 57.2 °F 93% 30.26 in 10.0 mi Calm Calm - N/A   Overcast
5:35 AM 59.2 °F 57.4 °F 94% 30.27 in 7.0 mi ENE 3.5 mph - N/A   Overcast
5:55 AM 58.5 °F 56.8 °F 94% 30.28 in 7.0 mi Calm Calm - N/A   Mostly Cloudy
6:15 AM 58.3 °F 56.5 °F 94% 30.29 in 10.0 mi Calm Calm - N/A   Scattered Clouds
6:35 AM 58.1 °F 56.3 °F 94% 30.30 in 10.0 mi Calm Calm - N/A   Clear
6:55 AM 58.1 °F 55.9 °F 93% 30.30 in 10.0 mi Calm Calm - N/A   Clear
7:15 AM 58.1 °F 55.8 °F 92% 30.31 in 10.0 mi Calm Calm - N/A   Clear
7:35 AM 58.3 °F 55.6 °F 91% 30.32 in 10.0 mi Calm Calm - N/A   Clear
7:55 AM 58.3 °F 55.8 °F 91% 30.32 in 10.0 mi Calm Calm - N/A   Clear
8:15 AM 58.8 °F 56.3 °F 91% 30.33 in 10.0 mi NNE 4.6 mph - N/A   Clear
8:35 AM 58.1 °F 55.6 °F 91% 30.34 in 10.0 mi NE 3.5 mph - N/A   Scattered Clouds
8:55 AM 59.4 °F 55.8 °F 88% 30.34 in 10.0 mi Calm Calm - N/A   Scattered Clouds
9:15 AM 60.8 °F 55.6 °F 83% 30.35 in 10.0 mi NE 3.5 mph - N/A   Clear
9:35 AM 62.2 °F 53.6 °F 73% 30.35 in 10.0 mi NE 3.5 mph - N/A   Clear
9:55 AM 63.7 °F 52.0 °F 66% 30.35 in 10.0 mi NNE 3.5 mph - N/A   Clear
10:15 AM 64.6 °F 52.3 °F 64% 30.35 in 10.0 mi NE 4.6 mph - N/A   Clear
10:35 AM 64.9 °F 52.2 °F 63% 30.36 in 10.0 mi ENE 5.8 mph - N/A   Clear
10:55 AM 65.7 °F 52.5 °F 62% 30.36 in 10.0 mi ENE 4.6 mph - N/A   Clear
11:15 AM 66.4 °F 53.2 °F 63% 30.36 in 10.0 mi ENE 5.8 mph - N/A   Clear
11:35 AM 67.5 °F 52.0 °F 58% 30.37 in 10.0 mi ENE 4.6 mph - N/A   Clear
11:55 AM 68.0 °F 52.0 °F 56% 30.37 in 10.0 mi East 3.5 mph - N/A   Clear
12:15 PM 69.3 °F 52.9 °F 56% 30.36 in 10.0 mi ENE 5.8 mph - N/A   Clear
12:35 PM 69.6 °F 48.4 °F 47% 30.36 in 10.0 mi East 5.8 mph - N/A   Clear
12:55 PM 70.0 °F 49.5 °F 48% 30.36 in 10.0 mi ENE 9.2 mph - N/A   Clear
1:15 PM 70.3 °F 49.8 °F 48% 30.36 in 10.0 mi Calm Calm - N/A   Clear
1:35 PM 69.4 °F 49.6 °F 49% 30.36 in 10.0 mi East 6.9 mph - N/A   Clear
1:55 PM 71.1 °F 49.6 °F 47% 30.36 in 10.0 mi East 8.1 mph - N/A   Clear
2:15 PM 70.5 °F 47.1 °F 43% 30.35 in 10.0 mi ESE 8.1 mph - N/A   Clear
2:35 PM 71.2 °F 48.4 °F 44% 30.35 in 10.0 mi Calm Calm - N/A   Clear
2:55 PM 68.9 °F 51.4 °F 54% 30.35 in 10.0 mi ESE 4.6 mph - N/A   Mostly Cloudy
3:15 PM 70.5 °F 52.9 °F 54% 30.35 in 10.0 mi East 3.5 mph - N/A   Mostly Cloudy
3:35 PM 69.6 °F 50.9 °F 51% 30.35 in 10.0 mi East 6.9 mph - N/A   Mostly Cloudy
3:55 PM 69.4 °F 50.5 °F 51% 30.35 in 10.0 mi East 6.9 mph - N/A   Scattered Clouds
4:15 PM 70.3 °F 49.8 °F 48% 30.36 in 10.0 mi East 3.5 mph - N/A   Scattered Clouds
4:35 PM 69.1 °F 51.1 °F 53% 30.35 in 10.0 mi ESE 5.8 mph - N/A   Scattered Clouds
4:55 PM 69.8 °F 50.4 °F 50% 30.35 in 10.0 mi SE 3.5 mph - N/A   Scattered Clouds
5:15 PM 69.6 °F 51.8 °F 53% 30.36 in 10.0 mi SE 4.6 mph - N/A   Mostly Cloudy
5:35 PM 68.5 °F 52.2 °F 56% 30.36 in 10.0 mi SE 4.6 mph - N/A   Mostly Cloudy
5:55 PM 68.9 °F 51.8 °F 54% 30.36 in 10.0 mi ESE 4.6 mph - N/A   Mostly Cloudy
6:15 PM 67.1 °F 52.2 °F 59% 30.36 in 10.0 mi SE 4.6 mph - N/A   Scattered Clouds
6:35 PM 66.2 °F 52.0 °F 60% 30.36 in 10.0 mi SE 3.5 mph - N/A   Scattered Clouds
6:55 PM 65.7 °F 51.6 °F 60% 30.36 in 10.0 mi SE 4.6 mph - N/A   Scattered Clouds
7:15 PM 65.3 °F 52.0 °F 62% 30.36 in 10.0 mi Calm Calm - N/A   Clear
7:35 PM 64.4 °F 51.8 °F 64% 30.36 in 10.0 mi Calm Calm - N/A   Clear
7:55 PM 64.4 °F 51.4 °F 63% 30.36 in 10.0 mi SE 3.5 mph - N/A   Clear
8:15 PM 64.0 °F 51.3 °F 63% 30.37 in 10.0 mi Calm Calm - N/A   Clear
8:35 PM 63.3 °F 50.5 °F 63% 30.38 in 10.0 mi SE 3.5 mph - N/A   Scattered Clouds
8:55 PM 62.6 °F 50.2 °F 64% 30.38 in 10.0 mi SSE 4.6 mph - N/A   Clear
9:15 PM 62.6 °F 50.0 °F 63% 30.39 in 10.0 mi Calm Calm - N/A   Clear
9:35 PM 62.6 °F 50.2 °F 64% 30.40 in 10.0 mi SSE 3.5 mph - N/A   Scattered Clouds
9:55 PM 62.4 °F 50.0 °F 64% 30.40 in 10.0 mi Calm Calm - N/A   Mostly Cloudy
10:15 PM 61.2 °F 50.9 °F 69% 30.40 in 10.0 mi Calm Calm - N/A   Scattered Clouds
10:35 PM 61.3 °F 50.4 °F 67% 30.40 in 10.0 mi Calm Calm - N/A   Clear
10:55 PM 61.0 °F 50.7 °F 69% 30.41 in 10.0 mi Calm Calm - N/A   Clear
11:15 PM 60.8 °F 50.9 °F 70% 30.41 in 10.0 mi Calm Calm - N/A   Clear
11:35 PM 59.9 °F 50.9 °F 72% 30.42 in 10.0 mi Calm Calm - N/A   Clear
11:55 PM 59.9 °F 50.9 °F 72% 30.42 in 10.0 mi Calm Calm - N/A   Clear